Regional Weather Roundup
Issued by NWS

Home | Current Version | Previous Version | Graphics & Text | Print | Product List | Glossary On
Versions: 1 2 3 4 5 6 7 8 9 10 11 12 13 14 15 16 17 18 19 20 21 22 23 24 25 26 27 28 29 30 31 32 33 34 35 36 37 38 39 40 41 42 43 44 45 46 47 48 49 50
000
ASUS43 KLOT 222209
RWRIL

ILLINOIS REGIONAL WEATHER ROUNDUP
NATIONAL WEATHER SERVICE CHICAGO/ROMEOVILLE IL
500 PM CDT SAT JUL 22 2017

NOTE: "FAIR" INDICATES FEW OR NO CLOUDS BELOW 12,000 FEET WITH NO
SIGNIFICANT WEATHER AND/OR OBSTRUCTIONS TO VISIBILITY.

* THESE STATIONS ARE NOT UNDER NWS QUALITY CONTROL. THEY ALSO MAY NOT
  REPORT WEATHER SUCH AS PRECIPITATION OR FOG.

ILZ001-002-007-009-015-016-024-222300-
NORTHWEST ILLINOIS

CITY           SKY/WX    TMP DP  RH WIND       PRES   REMARKS
MOLINE         CLOUDY    85  73  67 NW3       29.80S HX  91
STERLING*      MOSUNNY   83  74  74 W3        29.81F HX  89
SAVANNA*       CLOUDY    82  73  74 CALM      29.80F HX  88
$$

ILZ003-004-008-010-011-017-018-222300-
NORTH CENTRAL ILLINOIS

CITY           SKY/WX    TMP DP  RH WIND       PRES   REMARKS
ROCKFORD       PTSUNNY   87  71  58 NW6       29.82S HX  93
FREEPORT*      MOSUNNY   82  72  72 CALM      29.83S HX  87
ROCHELLE*      SUNNY     83  71  67 CALM      29.82S HX  87
DE KALB*       MOSUNNY   81  74  77 N3        29.83S HX  86
PERU*          CLOUDY    78  72  81 NW5       29.82S HX  81
$$

ILZ005-006-012>014-019>023-222300-
NORTHEAST ILLINOIS

CITY           SKY/WX    TMP DP  RH WIND       PRES   REMARKS
CHICAGO-OHARE  PTSUNNY   86  70  58 NW5       29.80S HX  90
CHICAGO-MIDWAY PTSUNNY   84  70  62 VRB3      29.79F HX  88
AURORA         MOSUNNY   85  73  67 W3        29.81F HX  91
LANSING*       PTSUNNY   84  67  56 CALM      29.81S HX  87
JOLIET*        CLOUDY    86  73  64 CALM      29.81S HX  93
WAUKEGAN       MOSUNNY   77  72  84 E7        29.80F
DUPAGE AIRPORT MOSUNNY   84  73  69 N3        29.80F HX  90
WHEELING       MOSUNNY   82  73  74 E6        29.82S HX  87
MORRIS*        CLOUDY    82  73  73 W5        29.80F HX  88
ROMEOVILLE*    PTSUNNY   85  70  61 W7        29.81S HX  90
NORTHERLY ISL    N/A     77  70  79 E5          N/A
$$

LMZ740>746-222300-
SOUTHERN LAKE MICHIGAN

STATION/POSITION SKY/WX   TEMP    WIND        PRES    VSBY  WAVE
                          AIR SEA DIR/SP/G                  HT/PER
                          (F)     (DEG/KT/KT) (MB)    (MI)  (FT/S)
SOUTHERN BUOY              70 70  350/  8/ 10 1009.2          1/ 4
WILMETTE HARBOR            74 74  150/  6/  6   N/A           1
HARRISON CRIB              76     140/  7/  8   N/A
BURNHAM HARBOR             77                   N/A
CALUMET HARBOR             76      90/  6/  7 1009.0F
BURNS HARBOR               81      50/  4/  5 1009.8F
MICHIGAN CITY              78      CALM  /  1   N/A
MICHIGAN CITY 6N           77 78  130/  2/  2   N/A           1
ST. JOSEPH                 75 75  280/  2/  4 1009.2          1
$$

ILZ025>027-034>036-040-047-049-050-058-095>099-222300-
WEST-CENTRAL ILLINOIS

CITY           SKY/WX    TMP DP  RH WIND       PRES   REMARKS
QUINCY         MOSUNNY   97  73  45 W7        29.77F HX 107
GALESBURG*     PTSUNNY   85  76  74 N6        29.82S HX  95
MACOMB*        PTSUNNY   89  78  70 N6        29.81F HX 102
JACKSONVILLE*  CLOUDY    92  77  61 NW3       29.78S HX 106
PITTSFIELD*    SUNNY     97  76  51 SW9       29.78F HX 111
$$

ILZ028>032-037-038-041>044-048-051>054-059>061-222300-
CENTRAL ILLINOIS

CITY           SKY/WX    TMP DP  RH WIND       PRES   REMARKS
PONTIAC        CLOUDY    85  77  78 CALM      29.83S HX  95
BLOOMINGTON    CLOUDY    85  76  74 NW13      29.83F HX  94
DECATUR        MOSUNNY   92  74  55 W10G20    29.81S HX 101
PEORIA         CLOUDY    86  78  77 CALM      29.81S HX  98
LACON*         CLOUDY    83  75  75 CALM      29.81S HX  91
LINCOLN*       PTSUNNY   92  77  62 W5        29.80S HX 106
SPRINGFIELD    MOSUNNY   94  79  61 W5        29.79F HX 111
TAYLORVILLE    PTSUNNY   91  76  61 CALM      29.80S HX 104
$$

ILZ033-039-045-046-055>057-062-063-222300-
EAST-CENTRAL ILLINOIS

CITY           SKY/WX    TMP DP  RH WIND       PRES   REMARKS
CHAMPAIGN      CLOUDY    87  78  74 W6        29.82S HX 100
RANTOUL*       CLOUDY    87  78  72 N7        29.82F HX 100
MATTOON        SUNNY     94  76  55 W12       29.80F HX 106
PARIS*         PTSUNNY   89  80  73 CALM      29.82S HX 105
$$

ILZ079-100>102-222300-
SOUTHWEST ILLINOIS

CITY           SKY/WX    TMP DP  RH WIND       PRES   REMARKS
ALTON          MOSUNNY   97  79  56 S9        29.78S HX 115
BELLEVILLE     SUNNY     99  76  48 SW10      29.77S HX 113
CAHOKIA*       MOSUNNY  103  70  34 SW8       29.75F HX 111
SPARTA*        SUNNY     97  72  44 S16G23    29.80F HX 106
$$

ILZ064>066-069>071-074>076-080>082-084>086-088>090-092>094-222300-
SOUTH-CENTRAL ILLINOIS

CITY           SKY/WX    TMP DP  RH WIND       PRES   REMARKS
CARBONDALE     SUNNY     93  74  53 SW17G24   29.81F HX 103
CAIRO*         SUNNY     93  75  55 SW8       29.84S HX 105
EFFINGHAM*     MOSUNNY   97  74  47 SW12G17   29.81S HX 108
MARION         SUNNY     95  72  46 SW16G22   29.83F HX 103
MT. VERNON     SUNNY     98  72  42 SW16G23   29.79F HX 107
CENTRALIA*     SUNNY     98  75  46 SW15      29.79R HX 110
SALEM*         SUNNY     98  71  41 SW15      29.80S HX 105
METROPOLIS*    SUNNY     94  75  54 SW9       29.86S HX 106
$$

ILZ067-068-072-073-078-083-087-091-222300-
SOUTHEAST ILLINOIS

CITY           SKY/WX    TMP DP  RH WIND       PRES   REMARKS
LAWRENCEVILLE  MOSUNNY   97  73  45 SW14G23   29.80F HX 107
FLORA*         SUNNY     96  76  51 SW14      29.80F HX 109
FAIRFIELD*     SUNNY     95  74  51 SW7       29.80R HX 106
HARRISBURG*    SUNNY     94  76  54 SW9       29.83S HX 107
ROBINSON*      MOSUNNY   92  78  63 SW9G16    29.80F HX 106
CARMI*         SUNNY     93  75  57 SW15G23   29.78F HX 104
$$

ABBREVIATIONS USED IN REMARKS
   TC - TEMPERATURE IN CELSIUS
  WCI - WIND CHILL INDEX
   HX - HEAT INDEX
  VSB - VISIBILITY
$$




USA.gov is the U.S. government's official web portal to all federal, state and local government web resources and services.